Starlink 32881

operational
NORAD ID: 62997 Int'l Des: 2025-031 Owner: SPXS Country: US Constellation: starlink
LEOCIRCULAR

Über Starlink 32881

Beschreibung wird geladen...

Live-Position

3D-Globus wird geladen...

Nächste Überflüge

Höhenverlauf

Altitude vs Time

uPlot chart will show altitude changes over time

Zweizeiliger Elementsatz

1 62997U 25031S 25350.16625679 .00012966 00000-0 47955-3 0 9998
2 62997 42.9984 254.8325 0001285 292.5279 67.5437 15.27601334 48323
Epoch: 16. Dez. 2025 • Age: 29 hours

Aktueller Status

Höhe 494.7 km
Geschwindigkeit 7.62 km/s
Subsatellitenpunkt -40.90°S, 90.95°W
Startdatum 11. Feb. 2025
Alter 0.8 years
Typ internet

Technische Details

Klassifizierung Payload
Masse 730.00 kg
Trockenmasse 700.00 kg
Gesamtmasse 730.00 kg
Länge 0.30 m
Durchmesser 4.10 m
Spannweite 29.00 m
Form Box + pan
Hersteller SPXS
Bus-Typ Starlink V2M
Phasenstatus In Orbit
Besitzer/Staat SPXS/US

Große Konstellationen

Loading constellations...